Wind_Speed
28 28 27 27 26 26 27 27 27 27 27 27 27 26 25 26 25 26 26 26 26 26 27 27 27 28 28 27 26 27 27 27 28 28 28 28 28 28 29 29 29 29 29
29 29 29 28 28 27 27 27 27 27 27 27 27 27 26 27 27 27 27 27 28 28 28 28 28 28 28 27 27 28 28 27 28 29 29 29 29 29 30 30 30 30 30
30 29 29 28 28 27 27 28 28 28 28 27 28 28 27 27 27 28 28 28 28 29 30 30 30 30 29 29 28 28 29 28 29 29 29 30 29 30 30 30 30 31 31
30 30 30 29 29 29 29 29 29 29 29 29 28 28 29 28 28 29 29 29 29 30 30 31 31 30 30 30 30 29 29 30 30 30 31 31 30 31 31 31 32 32 32
32 32 31 31 31 30 30 30 30 31 30 30 30 30 30 30 29 29 30 30 30 31 31 31 31 31 31 31 31 31 30 30 31 31 31 30 31 31 32 33 33 33 32
34 34 33 33 33 32 32 31 31 32 32 32 32 32 31 31 30 30 30 30 30 30 31 31 32 32 32 32 32 32 32 31 31 32 32 32 32 33 33 33 33 32 32
35 35 36 35 35 35 34 33 32 33 32 32 33 32 32 32 31 31 31 31 30 30 30 30 31 32 32 33 32 32 32 32 32 33 33 34 34 34 33 33 33 32 32
36 36 37 37 37 36 36 35 34 34 34 34 33 33 34 34 33 32 32 31 30 30 30 30 30 31 32 33 33 32 33 33 33 34 35 35 35 34 34 33 33 33 33
37 37 38 39 38 38 37 37 36 35 35 35 35 35 35 35 34 33 33 32 31 30 30 31 31 31 31 32 33 33 34 34 34 35 35 35 34 35 34 33 33 34 34
39 39 40 38 38 38 38 37 37 36 36 36 36 35 35 35 35 34 33 33 32 32 32 32 31 31 32 32 33 33 34 35 36 35 35 34 34 34 34 34 34 35 34
38 39 40 39 38 38 38 38 37 37 38 37 37 37 37 37 36 35 34 34 34 34 33 33 33 33 33 33 33 34 34 35 36 36 35 34 35 35 34 35 35 36 36
37 38 39 40 41 40 40 40 39 38 39 39 39 38 38 37 37 36 36 36 35 35 34 34 34 34 34 34 34 34 35 35 36 36 35 35 36 36 36 36 36 36 36
39 40 41 41 42 42 41 42 41 40 40 40 40 40 39 39 39 38 37 37 36 36 36 35 35 36 36 37 36 37 37 38 37 37 36 36 36 37 37 37 37 36 36
39 39 40 41 42 43 42 42 42 42 42 42 41 42 41 41 40 39 38 37 37 37 37 37 37 39 39 39 39 39 39 39 38 38 37 37 37 38 38 38 39 39 38
39 41 41 41 41 43 43 42 44 44 44 43 43 43 42 43 42 41 40 40 40 39 39 39 40 41 41 42 42 41 41 41 40 39 39 39 39 39 39 40 40 40 40
40 41 42 43 43 43 44 44 44 45 44 44 44 43 43 43 43 44 44 44 43 43 42 42 42 42 43 43 43 43 42 42 42 41 41 41 41 41 41 41 41 41 41
41 41 42 44 44 44 45 45 45 45 45 45 44 44 44 45 46 46 45 45 45 45 44 44 44 44 44 45 45 44 43 43 43 42 42 42 43 43 42 42 42 42 41
43 42 43 44 45 46 46 46 46 45 46 46 46 45 46 47 47 48 48 47 47 47 47 46 46 47 46 46 46 45 45 44 44 44 44 44 44 44 44 44 44 43 43
43 43 44 44 45 46 47 47 47 47 46 48 49 49 49 49 49 50 50 50 50 50 50 50 49 49 48 48 47 47 46 45 45 45 45 45 45 44 45 44 44 44 43
44 43 43 44 45 46 47 47 48 48 48 49 50 50 50 50 51 51 51 52 52 52 52 51 51 50 50 49 48 48 47 47 46 46 46 46 46 46 46 45 45 45 44
46 45 44 45 46 47 47 48 49 50 49 49 50 50 50 51 52 52 52 52 53 53 52 52 51 50 50 50 50 49 49 48 48 48 47 47 47 48 48 47 46 46 46
46 46 46 46 46 46 48 49 49 50 51 51 52 51 51 51 52 52 52 52 53 52 52 52 51 51 51 51 51 51 51 50 50 50 50 49 49 49 49 48 47 47 46
46 47 47 48 47 47 48 49 50 51 52 53 53 53 54 54 55 54 53 53 53 52 52 52 52 52 52 52 52 52 52 52 52 52 52 51 51 51 51 50 49 48 47
47 47 47 48 48 48 49 50 51 53 54 54 54 54 55 56 56 56 55 55 55 54 55 55 55 54 54 53 53 53 53 53 53 54 54 53 52 52 52 51 50 49 48
48 48 48 49 49 50 50 51 52 54 54 54 55 56 56 56 56 56 56 56 56 56 56 56 56 56 56 55 55 54 53 54 54 54 54 54 54 53 52 51 50 49 48
49 50 49 49 50 51 52 52 53 54 55 56 56 56 56 56 56 56 57 57 57 57 57 57 57 57 56 56 56 56 55 55 55 55 55 55 54 54 52 51 51 50 48
Wind_Direction
244 246 246 247 248 249 250 251 253 254 256 258 260 263 265 265 267 269 271 272 273 274 275 275 276 278 280 281 282 284 285 286 286 286 286 286 285 285 286 285 285 287 287
245 248 248 249 248 249 250 251 253 255 257 259 261 264 267 267 268 269 271 273 274 275 276 277 278 278 279 280 281 283 285 286 287 286 286 285 285 285 285 285 286 286 286
245 247 247 248 247 248 250 252 254 255 257 259 261 262 266 268 270 271 272 274 276 276 277 277 278 277 277 278 280 282 283 285 285 285 285 285 285 286 284 285 286 287 287
244 245 247 247 248 248 250 253 255 256 257 258 261 263 265 268 272 273 274 275 276 277 277 278 277 276 275 276 278 281 283 283 284 284 284 285 284 284 284 285 287 288 287
244 244 245 247 248 249 251 254 256 257 258 260 261 263 264 267 271 272 274 275 276 277 278 278 277 276 276 275 277 279 281 283 283 284 284 284 284 284 284 285 287 287 287
244 245 246 247 249 250 252 254 256 257 258 261 262 263 264 267 270 272 274 275 277 279 280 278 277 276 276 276 277 277 279 281 283 284 284 285 284 283 286 286 286 285 286
246 246 247 248 248 250 252 254 256 258 259 261 263 265 265 267 269 271 273 275 278 279 280 279 278 277 276 275 276 276 278 279 282 283 285 285 285 284 286 286 285 286 286
246 246 247 248 249 250 252 254 255 258 259 261 263 266 267 268 269 270 272 274 276 278 277 277 279 278 277 275 275 277 278 280 281 282 285 286 285 284 285 285 284 285 285
246 247 247 248 248 250 252 254 256 257 259 260 263 265 267 268 270 271 271 272 274 276 276 277 278 277 277 276 276 278 280 281 282 283 284 285 284 285 285 284 283 285 285
247 248 247 248 249 251 252 254 256 257 258 260 261 264 266 267 269 270 270 272 274 275 276 276 276 278 278 277 277 279 280 280 281 283 285 284 283 284 284 284 284 284 284
248 248 248 248 249 251 252 254 256 258 259 260 261 264 266 267 268 269 269 270 273 275 276 276 276 277 278 278 280 280 280 281 282 283 285 283 282 282 283 285 285 283 283
250 250 250 250 251 253 255 255 257 258 260 260 262 264 266 267 268 269 269 270 271 273 274 275 275 276 277 278 280 280 281 282 283 283 282 282 282 282 283 285 285 284 283
252 252 253 253 253 254 255 255 257 258 259 261 262 264 266 267 268 268 269 270 270 271 272 273 274 275 277 279 280 280 282 284 284 283 282 283 283 282 283 283 284 285 284
252 253 253 254 254 253 254 254 256 258 260 261 263 265 265 266 268 267 268 269 269 270 271 272 274 275 277 278 280 281 282 283 283 283 282 282 282 282 283 283 284 285 285
255 255 255 254 254 253 254 255 256 257 258 260 262 264 265 266 267 266 268 269 270 271 271 273 274 275 275 277 279 280 281 282 281 282 281 281 281 282 283 283 283 284 284
258 258 257 256 256 256 257 258 257 258 259 260 262 263 264 265 266 267 268 270 270 271 271 272 274 275 276 277 278 280 280 280 280 280 279 280 281 281 282 282 283 283 283
260 260 260 258 258 258 258 259 259 259 259 259 261 262 263 264 265 267 268 270 271 271 272 273 274 275 275 276 278 279 279 279 279 279 278 279 280 280 281 281 282 282 282
262 262 261 261 259 259 260 260 259 259 259 259 261 262 264 264 265 267 268 269 270 271 272 273 274 274 275 276 277 277 278 277 277 278 278 279 280 280 281 281 281 281 282
264 264 263 263 260 260 260 261 260 259 259 260 260 262 264 265 266 268 269 270 270 271 273 273 274 274 275 276 276 277 277 277 277 277 278 278 279 279 280 280 280 281 281
263 263 263 263 262 261 260 261 261 261 262 262 262 263 264 265 267 268 269 270 271 272 272 273 273 274 275 275 275 275 276 276 277 277 277 278 278 279 279 279 280 280 280
263 263 264 263 263 261 261 261 262 262 263 263 263 265 266 267 267 268 269 270 271 271 272 272 273 274 274 274 274 274 275 275 276 276 276 277 277 278 279 279 280 281 280
263 263 263 264 263 262 262 262 263 263 263 264 264 265 267 268 269 269 270 270 270 271 272 272 273 273 274 274 274 274 274 274 274 275 275 276 278 278 279 279 279 280 280
263 263 264 264 263 263 264 264 263 264 264 265 266 267 268 268 268 269 269 269 270 270 271 272 272 273 273 273 274 274 274 274 274 274 274 276 277 278 278 278 278 279 279
263 264 264 264 264 265 266 266 265 265 265 266 267 269 269 269 268 268 268 269 270 270 270 271 271 272 273 273 273 273 273 273 274 274 274 275 276 277 277 278 278 278 277
264 264 265 265 265 265 266 266 267 267 266 267 268 270 270 270 269 268 268 269 270 270 270 271 272 272 273 273 273 273 273 274 274 275 275 275 276 276 276 277 277 277 276
265 265 266 266 266 266 267 268 268 268 267 268 268 269 269 269 269 268 268 269 269 269 270 270 271 272 272 273 273 273 274 274 275 275 275 276 276 275 274 275 276 276 275
Height
5811 5813 5814 5816 5817 5818 5820 5822 5823 5824 5825 5826 5827 5827 5827 5827 5827 5827 5826 5826 5825 5825 5824 5824 5823 5823 5822 5821 5821 5820 5819 5819 5818 5817 5816 5816 5815 5814 5812 5811 5810 5809 5808
5805 5807 5809 5810 5812 5813 5814 5816 5817 5819 5820 5821 5821 5822 5822 5821 5821 5821 5820 5820 5819 5819 5818 5818 5817 5817 5816 5816 5815 5814 5814 5813 5812 5811 5810 5809 5809 5807 5806 5805 5804 5803 5801
5799 5801 5803 5804 5806 5807 5809 5810 5812 5813 5814 5815 5816 5816 5816 5815 5815 5815 5814 5814 5813 5813 5812 5811 5811 5810 5810 5810 5809 5808 5808 5807 5806 5805 5804 5803 5802 5801 5799 5798 5797 5796 5795
5793 5795 5797 5798 5800 5802 5803 5805 5806 5807 5808 5809 5810 5810 5810 5809 5809 5809 5808 5808 5807 5806 5805 5805 5804 5804 5803 5803 5803 5802 5802 5801 5800 5799 5797 5796 5795 5794 5793 5791 5790 5789 5787
5787 5788 5790 5792 5794 5796 5797 5799 5800 5801 5802 5803 5803 5803 5803 5803 5803 5802 5802 5801 5800 5799 5799 5798 5797 5797 5796 5796 5796 5796 5795 5794 5793 5792 5790 5789 5788 5787 5786 5784 5783 5781 5780
5779 5781 5783 5785 5787 5789 5790 5792 5793 5794 5795 5796 5796 5796 5796 5796 5796 5796 5795 5794 5793 5792 5792 5791 5790 5789 5789 5788 5788 5788 5788 5788 5786 5785 5784 5782 5781 5780 5778 5777 5776 5774 5773
5772 5774 5776 5778 5780 5782 5783 5785 5786 5787 5788 5788 5789 5789 5789 5789 5789 5789 5788 5788 5787 5786 5785 5784 5783 5782 5782 5781 5781 5781 5781 5780 5779 5778 5776 5775 5773 5772 5771 5770 5768 5767 5765
5763 5765 5768 5770 5772 5774 5776 5777 5779 5780 5780 5781 5782 5782 5782 5782 5781 5781 5781 5781 5780 5779 5778 5777 5776 5775 5774 5774 5774 5774 5773 5773 5772 5770 5769 5767 5766 5765 5764 5762 5761 5760 5758
5755 5757 5759 5761 5764 5766 5768 5769 5771 5772 5773 5774 5774 5775 5775 5775 5774 5774 5774 5774 5773 5772 5771 5770 5769 5768 5768 5767 5767 5766 5766 5765 5764 5762 5761 5759 5758 5757 5756 5755 5753 5752 5750
5747 5749 5751 5752 5755 5758 5760 5761 5762 5764 5765 5766 5767 5767 5767 5768 5768 5768 5767 5767 5766 5765 5764 5763 5762 5761 5761 5760 5759 5759 5758 5757 5756 5755 5753 5752 5751 5750 5748 5747 5745 5744 5742
5739 5740 5742 5744 5747 5749 5751 5752 5754 5755 5757 5758 5758 5759 5759 5759 5759 5760 5760 5760 5759 5758 5757 5756 5755 5755 5754 5753 5752 5751 5750 5750 5749 5747 5746 5744 5743 5742 5740 5739 5737 5735 5733
5730 5732 5734 5736 5738 5740 5742 5744 5745 5746 5748 5749 5750 5750 5751 5751 5751 5751 5752 5751 5751 5750 5749 5748 5748 5747 5746 5746 5745 5744 5743 5742 5740 5739 5738 5736 5735 5734 5732 5730 5729 5727 5725
5722 5723 5725 5727 5729 5731 5732 5734 5735 5736 5738 5739 5740 5741 5742 5742 5742 5743 5743 5743 5743 5742 5742 5741 5740 5739 5739 5738 5737 5736 5735 5734 5732 5731 5729 5728 5727 5725 5724 5722 5720 5718 5716
5713 5714 5715 5717 5719 5721 5723 5724 5725 5727 5728 5729 5731 5731 5732 5733 5733 5733 5734 5734 5734 5734 5733 5733 5732 5731 5730 5729 5728 5727 5726 5725 5723 5722 5721 5719 5718 5716 5715 5713 5711 5709 5707
5703 5704 5706 5707 5709 5711 5712 5713 5715 5716 5718 5719 5721 5721 5722 5723 5723 5723 5723 5724 5724 5724 5725 5724 5723 5722 5721 5720 5719 5718 5716 5715 5714 5712 5711 5710 5708 5707 5705 5703 5701 5699 5698
5693 5694 5695 5697 5698 5700 5701 5702 5704 5705 5707 5708 5710 5711 5711 5712 5712 5712 5713 5713 5713 5713 5714 5714 5712 5711 5710 5710 5708 5707 5706 5704 5703 5702 5701 5699 5698 5696 5695 5693 5691 5689 5688
5682 5683 5684 5685 5687 5689 5690 5691 5693 5694 5696 5697 5698 5699 5700 5701 5701 5701 5701 5701 5701 5701 5702 5703 5701 5700 5699 5698 5697 5696 5695 5694 5692 5691 5689 5688 5687 5685 5684 5682 5680 5679 5677
5671 5672 5673 5674 5675 5677 5679 5680 5681 5683 5684 5686 5687 5688 5689 5689 5690 5690 5690 5690 5689 5689 5690 5690 5690 5688 5687 5686 5686 5685 5683 5682 5681 5679 5678 5677 5675 5674 5672 5671 5669 5667 5666
5659 5660 5661 5662 5663 5665 5667 5668 5669 5671 5672 5674 5675 5676 5676 5677 5677 5677 5677 5677 5677 5677 5676 5677 5677 5676 5675 5673 5673 5672 5671 5669 5668 5667 5666 5665 5663 5662 5660 5659 5657 5656 5654
5647 5648 5649 5649 5651 5652 5654 5656 5657 5658 5660 5661 5662 5663 5663 5664 5664 5664 5664 5664 5664 5663 5663 5663 5663 5662 5661 5660 5659 5659 5658 5656 5655 5654 5653 5652 5651 5649 5648 5647 5645 5643 5642
5634 5635 5636 5637 5638 5640 5641 5643 5644 5645 5647 5647 5648 5649 5650 5650 5650 5650 5650 5650 5649 5649 5649 5648 5648 5648 5647 5647 5646 5645 5644 5643 5642 5641 5639 5639 5637 5636 5634 5633 5632 5630 5629
5621 5622 5623 5624 5625 5626 5628 5629 5630 5631 5633 5633 5634 5635 5635 5636 5636 5636 5635 5635 5635 5634 5634 5634 5634 5634 5633 5632 5631 5630 5629 5629 5629 5628 5626 5625 5624 5622 5621 5620 5619 5617 5616
5608 5609 5609 5610 5611 5612 5613 5614 5615 5617 5618 5619 5619 5620 5620 5620 5620 5620 5620 5620 5620 5619 5620 5620 5620 5619 5618 5618 5616 5616 5614 5614 5614 5613 5611 5611 5610 5609 5607 5606 5605 5604 5603
5594 5595 5596 5596 5597 5598 5598 5599 5600 5601 5602 5603 5604 5604 5604 5605 5604 5604 5604 5604 5604 5604 5604 5604 5605 5604 5603 5601 5601 5600 5599 5599 5599 5598 5596 5597 5596 5594 5593 5592 5591 5590 5589
5580 5580 5581 5582 5582 5583 5583 5583 5584 5585 5586 5587 5588 5588 5588 5588 5588 5588 5588 5589 5589 5589 5588 5587 5588 5587 5586 5585 5584 5584 5584 5584 5584 5583 5581 5580 5580 5579 5578 5578 5577 5576 5575
5564 5565 5566 5566 5567 5568 5568 5568 5568 5569 5570 5571 5571 5571 5571 5571 5571 5571 5571 5572 5572 5572 5572 5571 5571 5570 5569 5569 5568 5568 5567 5567 5567 5567 5566 5564 5564 5563 5564 5564 5562 5561 5560